DW8851 Weather Reports


Display with metric or nautical units.
time (UTC)temp
F
wind
direction
speed
MPH
gust
MPH
rain 1hr
in
rain 24hr
in
rain mn
in
humidity
%
barometer
mb
20201125144020 37 332 0.0 3.0 0.00 0.00 0.00 61 1029.3
20201125143137 36 349 0.0 2.0 0.00 0.00 0.00 59 1029.4
20201125140551 36 360 1.0 3.0 0.00 0.00 0.00 58 1029.6
20201125140216 36 348 1.0 4.0 0.00 0.00 0.00 58 1029.8
20201125135102 35 355 1.0 4.0 0.00 0.00 0.00 58 1029.9
20201125134626 35 355 0.0 3.0 0.00 0.00 0.00 59 1030.0
20201125132051 34 323 0.0 2.0 0.00 0.00 0.00 59 1030.0
20201125131559 34 323 0.0 3.0 0.00 0.00 0.00 59 1030.0
20201125131040 34 360 0.0 2.0 0.00 0.00 0.00 60 1030.1
20201125130539 34 360 0.0 3.0 0.00 0.00 0.00 60 1030.1
20201125130108 34 331 1.0 3.0 0.00 0.00 0.00 60 1030.1
20201125125542 34 343 1.0 2.0 0.00 0.00 0.00 59 1030.1
20201125125038 33 321 0.0 2.0 0.00 0.00 0.00 59 1029.9
20201125124615 33 317 0.0 2.0 0.00 0.00 0.00 60 1029.9
20201125124037 33 317 0.0 2.0 0.00 0.00 0.00 60 1029.8
20201125123536 33 317 0.0 2.0 0.00 0.00 0.00 60 1029.7
20201125123125 33 338 0.0 2.0 0.00 0.00 0.00 60 1029.8
20201125122535 33 338 0.0 2.0 0.00 0.00 0.00 60 1029.7
20201125122035 33 336 0.0 2.0 0.00 0.00 0.00 60 1030.0
20201125121532 33 336 1.0 3.0 0.00 0.00 0.00 60 1030.0
20201125121036 33 336 0.0 3.0 0.00 0.00 0.00 61 1030.1
20201125120530 33 320 1.0 3.0 0.00 0.00 0.00 61 1030.2
20201125120132 33 360 0.0 2.0 0.00 0.00 0.00 62 1030.1
20201125115530 33 360 0.0 2.0 0.00 0.00 0.00 62 1030.1
20201125115030 33 5 0.0 2.0 0.00 0.00 0.00 62 1030.0
20201125114539 33 5 0.0 2.0 0.00 0.00 0.00 61 1030.1
20201125114031 33 5 0.0 2.0 0.00 0.00 0.00 62 1030.1
20201125113537 33 5 0.0 2.0 0.00 0.00 0.00 61 1030.1
20201125113052 33 5 0.0 2.0 0.00 0.00 0.00 62 1030.3
20201125112536 33 5 1.0 2.0 0.00 0.00 0.00 61 1030.3
20201125112029 33 355 0.0 2.0 0.00 0.00 0.00 62 1030.3
20201125111545 33 355 0.0 2.0 0.00 0.00 0.00 60 1030.4
20201125111030 33 323 0.0 1.0 0.00 0.00 0.00 62 1030.5
20201125110530 33 323 0.0 3.0 0.00 0.00 0.00 61 1030.3
20201125110035 33 323 0.0 4.0 0.00 0.00 0.00 61 1030.4
20201125105522 33 331 1.0 4.0 0.00 0.00 0.00 60 1030.5
20201125105022 33 331 0.0 3.0 0.00 0.00 0.00 61 1030.6
20201125104630 33 331 0.0 2.0 0.00 0.00 0.00 61 1030.4
20201125104037 33 331 0.0 2.0 0.00 0.00 0.00 61 1030.4
20201125103521 33 331 0.0 2.0 0.00 0.00 0.00 61 1030.4
20201125103031 33 331 0.0 2.0 0.00 0.00 0.00 62 1030.5
20201125102551 33 331 0.0 3.0 0.00 0.00 0.00 60 1030.6
20201125102023 33 331 0.0 3.0 0.00 0.00 0.00 61 1030.6
20201125101552 33 331 0.0 2.0 0.00 0.00 0.00 61 1030.5
20201125101030 33 331 0.0 2.0 0.00 0.00 0.00 61 1030.5
20201125100526 33 331 0.0 2.0 0.00 0.00 0.00 61 1030.4
20201125100045 33 331 0.0 3.0 0.00 0.00 0.00 61 1030.6
20201125095520 33 331 1.0 3.0 0.00 0.00 0.00 61 1030.6
20201125095039 33 331 0.0 3.0 0.00 0.00 0.00 61 1030.7
20201125094639 33 355 0.0 2.0 0.00 0.00 0.00 62 1030.6
20201125094037 33 355 0.0 2.0 0.00 0.00 0.00 62 1030.7
20201125093527 33 355 0.0 2.0 0.00 0.00 0.00 61 1030.7
20201125093043 33 355 1.0 3.0 0.00 0.00 0.00 61 1030.7
20201125092518 33 355 0.0 3.0 0.00 0.00 0.00 61 1030.6
20201125092035 33 328 0.0 2.0 0.00 0.00 0.00 62 1030.8
20201125091526 33 328 0.0 3.0 0.00 0.00 0.00 62 1030.8
20201125091027 33 328 0.0 3.0 0.00 0.00 0.00 62 1030.7
20201125090516 33 319 0.0 2.0 0.00 0.00 0.00 61 1030.6
20201125090055 33 319 0.0 2.0 0.00 0.00 0.00 62 1030.7
20201125085523 33 317 0.0 3.0 0.00 0.00 0.00 63 1030.6
20201125085021 33 35 0.0 3.0 0.00 0.00 0.00 61 1030.7
20201125084516 33 360 0.0 3.0 0.00 0.00 0.00 62 1030.9
20201125084017 33 351 1.0 3.0 0.00 0.00 0.00 61 1031.1
20201125083526 33 305 0.0 2.0 0.00 0.00 0.00 62 1031.1
20201125083021 33 343 0.0 2.0 0.00 0.00 0.00 63 1031.3
20201125082516 33 343 0.0 3.0 0.00 0.00 0.00 62 1031.5
20201125082017 33 343 0.0 3.0 0.00 0.00 0.00 62 1031.3
20201125081543 33 355 0.0 4.0 0.00 0.00 0.00 63 1031.2
20201125081021 33 348 1.0 4.0 0.00 0.00 0.00 62 1031.4
20201125080512 33 325 0.0 3.0 0.00 0.00 0.00 64 1031.3
20201125080027 33 325 1.0 3.0 0.00 0.00 0.00 64 1031.5
20201125075512 33 325 0.0 2.0 0.00 0.00 0.00 65 1031.5
20201125075020 33 324 0.0 2.0 0.00 0.00 0.00 66 1031.4
20201125074532 33 325 0.0 2.0 0.00 0.00 0.00 66 1031.5
20201125074020 33 324 0.0 2.0 0.00 0.00 0.00 69 1031.3
20201125073512 33 324 0.0 2.0 0.00 0.00 0.00 69 1031.3
20201125073021 33 324 0.0 1.0 0.00 0.00 0.00 70 1031.3
20201125072511 33 324 0.0 1.0 0.00 0.00 0.00 71 1031.4
20201125072012 33 324 0.0 2.0 0.00 0.00 0.00 71 1031.4
20201125071512 33 324 0.0 2.0 0.00 0.00 0.00 71 1031.4
20201125071007 33 324 0.0 1.0 0.00 0.00 0.00 71 1031.4
20201125070154 33 324 0.0 1.0 0.00 0.00 0.00 71 1031.2
20201125065639 33 324 0.0 1.0 0.00 0.00 0.00 71 1031.3
20201125065057 33 324 0.0 2.0 0.00 0.00 0.00 72 1031.3
20201125064724 32 324 0.0 2.0 0.00 0.00 0.00 72 1031.2
20201125064055 32 324 0.0 1.0 0.00 0.00 0.00 72 1031.0
20201125063602 32 324 0.0 1.0 0.00 0.00 0.00 72 1030.9
20201125063128 32 324 0.0 1.0 0.00 0.00 0.00 71 1030.8
20201125062554 32 324 0.0 1.0 0.00 0.00 0.00 72 1030.9
20201125062053 32 324 0.0 1.0 0.00 0.00 0.00 72 1030.7
20201125061623 32 324 0.0 2.0 0.00 0.00 0.00 71 1030.8
20201125061100 32 324 0.0 2.0 0.00 0.00 0.00 71 1031.0
20201125060553 32 324 0.0 1.0 0.00 0.00 0.00 71 1030.7
20201125060137 33 324 0.0 2.0 0.00 0.00 0.00 70 1030.8
20201125055546 33 324 0.0 2.0 0.00 0.00 0.00 70 1031.0
20201125055051 33 324 0.0 1.0 0.00 0.00 0.00 70 1031.1
20201125054625 33 324 0.0 1.0 0.00 0.00 0.00 71 1031.0
20201125054046 33 324 0.0 1.0 0.00 0.00 0.00 71 1031.0
20201125053543 33 324 0.0 1.0 0.00 0.00 0.00 70 1031.0
20201125053119 33 324 0.0 2.0 0.00 0.00 0.00 70 1031.0
20201125052539 33 324 0.0 2.0 0.00 0.00 0.00 70 1031.0
20201125052053 33 327 0.0 2.0 0.00 0.00 0.00 70 1031.1
20201125051613 33 327 0.0 2.0 0.00 0.00 0.00 70 1031.4
20201125051051 33 327 0.0 2.0 0.00 0.00 0.00 70 1031.2
20201125050547 33 327 0.0 2.0 0.00 0.00 0.00 70 1031.0
20201125050104 33 327 0.0 2.0 0.00 0.00 0.00 69 1030.9
20201125045535 33 327 0.0 3.0 0.00 0.00 0.00 68 1030.9
20201125045033 33 327 0.0 3.0 0.00 0.00 0.00 68 1031.1
20201125044542 33 298 0.0 2.0 0.00 0.00 0.00 68 1030.9
20201125044040 33 287 0.0 2.0 0.00 0.00 0.00 68 1030.9
20201125043534 33 288 0.0 2.0 0.00 0.00 0.00 69 1031.0
20201125043037 33 259 0.0 2.0 0.00 0.00 0.00 69 1031.1
20201125042535 33 259 0.0 2.0 0.00 0.00 0.00 70 1031.0
20201125042032 33 258 0.0 1.0 0.00 0.00 0.00 70 1031.0
20201125041631 33 258 0.0 2.0 0.00 0.00 0.00 70 1031.0
20201125041037 32 258 0.0 2.0 0.00 0.00 0.00 70 1031.0
20201125040530 32 258 0.0 1.0 0.00 0.00 0.00 71 1031.1
20201125040057 32 258 0.0 1.0 0.00 0.00 0.00 72 1031.2
20201125035529 32 258 0.0 1.0 0.00 0.00 0.00 74 1031.2
20201125035029 32 258 0.0 1.0 0.00 0.00 0.00 74 1031.0
20201125034631 32 258 0.0 1.0 0.00 0.00 0.00 75 1031.1
20201125034030 32 258 0.0 1.0 0.00 0.00 0.00 75 1030.9
20201125033529 32 258 0.0 2.0 0.00 0.00 0.00 75 1030.9
20201125033113 32 258 0.0 2.0 0.00 0.00 0.00 77 1030.5
20201125032529 32 258 0.0 2.0 0.00 0.00 0.00 78 1030.6
20201125032050 31 257 0.0 1.0 0.00 0.00 0.00 77 1030.7
20201125031610 31 257 0.0 2.0 0.00 0.00 0.00 77 1030.7
20201125031030 31 257 0.0 2.0 0.00 0.00 0.00 77 1030.5
20201125030528 31 257 0.0 0.0 0.00 0.00 0.00 77 1030.6
20201125030054 31 257 0.0 0.0 0.00 0.00 0.00 76 1030.6
20201125025528 31 257 0.0 0.0 0.00 0.00 0.00 76 1030.6
20201125025039 31 257 0.0 0.0 0.00 0.00 0.00 76 1030.6
20201125024557 31 257 0.0 1.0 0.00 0.00 0.00 76 1030.6
20201125024027 31 257 0.0 1.0 0.00 0.00 0.00 77 1030.7
20201125023530 31 257 0.0 1.0 0.00 0.00 0.00 77 1030.6
20201125023112 31 257 0.0 1.0 0.00 0.00 0.00 76 1030.6
20201125022525 31 257 0.0 0.0 0.00 0.00 0.00 76 1030.8
20201125022036 31 257 0.0 1.0 0.00 0.00 0.00 76 1030.7
20201125021615 31 257 0.0 1.0 0.00 0.00 0.00 75 1030.7
20201125021035 32 257 0.0 1.0 0.00 0.00 0.00 75 1030.7
20201125020524 32 257 0.0 1.0 0.00 0.00 0.00 75 1030.6
20201125020049 32 257 0.0 0.0 0.00 0.00 0.00 75 1030.6
20201125015531 32 257 0.0 1.0 0.00 0.00 0.00 75 1030.5
20201125015022 31 257 0.0 1.0 0.00 0.00 0.00 76 1030.5
20201125014550 32 257 0.0 1.0 0.00 0.00 0.00 76 1030.5
20201125014026 32 257 0.0 1.0 0.00 0.00 0.00 76 1030.5
20201125013528 32 257 0.0 1.0 0.00 0.00 0.00 75 1030.4
20201125013058 32 257 0.0 1.0 0.00 0.00 0.00 75 1030.4
20201125012530 32 257 0.0 1.0 0.00 0.00 0.00 74 1030.4
20201125012019 33 257 0.0 1.0 0.00 0.00 0.00 74 1030.4
20201125011547 33 257 0.0 2.0 0.00 0.00 0.00 73 1030.2
20201125011050 33 257 0.0 2.0 0.00 0.00 0.00 73 1030.2
20201125010527 33 257 0.0 1.0 0.00 0.00 0.00 73 1030.2
20201125010042 33 257 0.0 1.0 0.00 0.00 0.00 74 1030.2
20201125005530 33 257 0.0 1.0 0.00 0.00 0.00 73 1030.1